Time,TemperatureF,DewpointF,PressureIn,WindDirection,WindDirectionDegrees,WindSpeedMPH,WindSpeedGustMPH,Humidity,HourlyPrecipIn,Conditions,Clouds,dailyrainin,SoftwareType,DateUTC
2013-06-16 00:01:00,52.7,39.6,29.98,SW,226,0.0,3.0,61,0.00,,,0.00,VWS V14.01,2013-06-16 06:01:00,
2013-06-16 00:06:00,51.7,39.5,29.98,SSW,194,0.0,3.0,63,0.00,,,0.00,VWS V14.01,2013-06-16 06:06:00,
2013-06-16 00:11:00,51.2,39.5,29.98,SSW,194,0.0,3.0,64,0.00,,,0.00,VWS V14.01,2013-06-16 06:11:00,
2013-06-16 00:16:00,50.7,39.4,29.98,SSW,194,0.0,3.0,65,0.00,,,0.00,VWS V14.01,2013-06-16 06:16:00,
2013-06-16 00:21:00,50.6,39.7,29.98,SSW,194,0.0,3.0,66,0.00,,,0.00,VWS V14.01,2013-06-16 06:21:00,
2013-06-16 00:26:00,50.4,39.5,29.99,SSW,194,0.0,3.0,66,0.00,,,0.00,VWS V14.01,2013-06-16 06:26:00,
2013-06-16 00:31:00,50.3,39.4,29.99,SSW,194,0.0,3.0,66,0.00,,,0.00,VWS V14.01,2013-06-16 06:31:00,
2013-06-16 00:36:00,50.1,39.6,29.99,SSW,194,0.0,0.0,67,0.00,,,0.00,VWS V14.01,2013-06-16 06:36:00,
2013-06-16 00:41:00,49.9,39.4,29.99,SSW,194,0.0,0.0,67,0.00,,,0.00,VWS V14.01,2013-06-16 06:41:00,
2013-06-16 00:46:00,49.7,39.6,29.99,SSW,194,0.0,2.0,68,0.00,,,0.00,VWS V14.01,2013-06-16 06:46:00,
2013-06-16 00:51:00,49.4,39.3,29.99,SSW,194,1.0,2.0,68,0.00,,,0.00,VWS V14.01,2013-06-16 06:51:00,
2013-06-16 00:56:00,49.1,39.4,29.99,SSW,194,0.0,2.0,69,0.00,,,0.00,VWS V14.01,2013-06-16 06:56:00,
2013-06-16 01:01:00,49.1,39.0,29.99,SSW,194,0.0,2.0,68,0.00,,,0.00,VWS V14.01,2013-06-16 07:01:00,
2013-06-16 01:06:00,49.2,39.5,29.99,SSW,194,0.0,0.0,69,0.00,,,0.00,VWS V14.01,2013-06-16 07:06:00,
2013-06-16 01:11:00,49.2,39.5,29.99,SSW,194,0.0,0.0,69,0.00,,,0.00,VWS V14.01,2013-06-16 07:11:00,
2013-06-16 01:16:00,49.0,39.3,29.99,SSW,194,0.0,0.0,69,0.00,,,0.00,VWS V14.01,2013-06-16 07:16:00,
2013-06-16 01:21:00,48.8,39.5,29.99,SSW,194,0.0,2.0,70,0.00,,,0.00,VWS V14.01,2013-06-16 07:21:00,
2013-06-16 01:26:00,48.5,38.8,30.00,SSW,194,0.0,2.0,69,0.00,,,0.00,VWS V14.01,2013-06-16 07:26:00,
2013-06-16 01:31:00,48.2,38.9,30.00,SSW,194,0.0,2.0,70,0.00,,,0.00,VWS V14.01,2013-06-16 07:31:00,
2013-06-16 01:36:00,48.0,38.7,30.00,SSW,194,0.0,0.0,70,0.00,,,0.00,VWS V14.01,2013-06-16 07:36:00,
2013-06-16 01:41:00,47.8,38.5,30.00,SSW,194,0.0,0.0,70,0.00,,,0.00,VWS V14.01,2013-06-16 07:41:00,
2013-06-16 01:46:00,47.8,38.5,30.00,SSW,194,0.0,0.0,70,0.00,,,0.00,VWS V14.01,2013-06-16 07:46:00,
2013-06-16 01:51:00,47.7,38.4,30.00,SSW,194,0.0,1.0,70,0.00,,,0.00,VWS V14.01,2013-06-16 07:51:00,
2013-06-16 01:56:00,47.9,38.2,30.00,WSW,241,0.0,4.0,69,0.00,,,0.00,VWS V14.01,2013-06-16 07:56:00,
2013-06-16 02:01:00,48.1,38.4,30.00,WSW,242,2.0,4.0,69,0.00,,,0.00,VWS V14.01,2013-06-16 08:01:00,
2013-06-16 02:06:00,48.1,38.0,30.00,WSW,249,0.0,5.0,68,0.00,,,0.00,VWS V14.01,2013-06-16 08:06:00,
2013-06-16 02:11:00,48.0,38.3,30.00,WSW,249,0.0,5.0,69,0.00,,,0.00,VWS V14.01,2013-06-16 08:11:00,
2013-06-16 02:16:00,47.9,38.6,30.00,WSW,249,0.0,0.0,70,0.00,,,0.00,VPLive 1.2.5.27,2013-06-16 08:16:00,
2013-06-16 02:21:00,47.9,38.2,30.00,WSW,249,0.0,5.0,69,0.00,,,0.00,VWS V14.01,2013-06-16 08:21:00,
2013-06-16 02:26:00,47.7,38.4,30.00,WSW,249,0.0,5.0,70,0.00,,,0.00,VWS V14.01,2013-06-16 08:26:00,
2013-06-16 02:31:00,47.4,38.1,30.01,WSW,249,0.0,5.0,70,0.00,,,0.00,VWS V14.01,2013-06-16 08:31:00,
2013-06-16 02:36:00,47.4,38.1,30.01,WSW,249,0.0,0.0,70,0.00,,,0.00,VWS V14.01,2013-06-16 08:36:00,
2013-06-16 02:41:00,47.3,38.4,30.01,WSW,249,0.0,0.0,71,0.00,,,0.00,VWS V14.01,2013-06-16 08:41:00,
2013-06-16 02:46:00,46.8,37.9,30.01,WSW,249,0.0,3.0,71,0.00,,,0.00,VWS V14.01,2013-06-16 08:46:00,
2013-06-16 02:51:00,46.4,37.9,30.01,WSW,249,0.0,3.0,72,0.00,,,0.00,VWS V14.01,2013-06-16 08:51:00,
2013-06-16 02:56:00,46.1,37.6,30.01,WSW,249,0.0,3.0,72,0.00,,,0.00,VWS V14.01,2013-06-16 08:56:00,
2013-06-16 03:01:00,45.8,37.3,30.01,WSW,249,0.0,3.0,72,0.00,,,0.00,VWS V14.01,2013-06-16 09:01:00,
2013-06-16 03:06:00,45.5,37.4,30.01,WSW,249,0.0,0.0,73,0.00,,,0.00,VWS V14.01,2013-06-16 09:06:00,
2013-06-16 03:11:00,45.4,38.0,30.01,WSW,249,0.0,2.0,75,0.00,,,0.00,VWS V14.01,2013-06-16 09:11:00,
2013-06-16 03:16:00,45.5,37.7,30.01,WSW,249,0.0,2.0,74,0.00,,,0.00,VWS V14.01,2013-06-16 09:16:00,
2013-06-16 03:21:00,45.6,37.8,30.01,WSW,249,0.0,2.0,74,0.00,,,0.00,VWS V14.01,2013-06-16 09:21:00,
2013-06-16 03:26:00,45.3,37.5,30.01,WSW,249,0.0,2.0,74,0.00,,,0.00,VWS V14.01,2013-06-16 09:26:00,
2013-06-16 03:31:00,45.2,37.4,30.01,WSW,249,0.0,2.0,74,0.00,,,0.00,VWS V14.01,2013-06-16 09:31:00,
2013-06-16 03:36:00,45.1,37.7,30.01,WSW,249,0.0,0.0,75,0.00,,,0.00,VWS V14.01,2013-06-16 09:36:00,
2013-06-16 03:41:00,45.0,37.2,30.01,WSW,249,0.0,1.0,74,0.00,,,0.00,VWS V14.01,2013-06-16 09:41:00,
2013-06-16 03:46:00,45.0,37.2,30.01,WSW,249,0.0,1.0,74,0.00,,,0.00,VWS V14.01,2013-06-16 09:46:00,
2013-06-16 03:51:00,45.0,37.6,30.01,WSW,249,0.0,1.0,75,0.00,,,0.00,VWS V14.01,2013-06-16 09:51:00,
2013-06-16 03:56:00,45.0,37.2,30.01,WSW,250,0.0,2.0,74,0.00,,,0.00,VWS V14.01,2013-06-16 09:56:00,
2013-06-16 04:01:00,44.9,37.1,30.01,WSW,250,0.0,2.0,74,0.00,,,0.00,VWS V14.01,2013-06-16 10:01:00,
2013-06-16 04:06:00,44.7,36.9,30.01,WSW,250,0.0,2.0,74,0.00,,,0.00,VWS V14.01,2013-06-16 10:06:00,
2013-06-16 04:11:00,44.7,37.3,30.01,WSW,250,1.0,2.0,75,0.00,,,0.00,VWS V14.01,2013-06-16 10:11:00,
2013-06-16 04:16:00,44.9,37.1,30.01,West,269,3.0,5.0,74,0.00,,,0.00,VWS V14.01,2013-06-16 10:16:00,
2013-06-16 04:21:00,45.0,37.2,30.01,West,269,0.0,5.0,74,0.00,,,0.00,VWS V14.01,2013-06-16 10:21:00,
2013-06-16 04:26:00,44.7,36.9,30.01,West,269,0.0,5.0,74,0.00,,,0.00,VWS V14.01,2013-06-16 10:26:00,
2013-06-16 04:31:00,44.4,37.0,30.01,West,269,0.0,5.0,75,0.00,,,0.00,VWS V14.01,2013-06-16 10:31:00,
2013-06-16 04:36:00,44.1,36.7,30.01,West,269,0.0,0.0,75,0.00,,,0.00,VWS V14.01,2013-06-16 10:36:00,
2013-06-16 04:41:00,44.1,36.7,30.01,West,269,0.0,0.0,75,0.00,,,0.00,VWS V14.01,2013-06-16 10:41:00,
2013-06-16 04:46:00,44.1,36.7,30.01,West,269,0.0,1.0,75,0.00,,,0.00,VWS V14.01,2013-06-16 10:46:00,
2013-06-16 04:51:00,43.6,36.5,30.01,West,269,0.0,1.0,76,0.00,,,0.00,VWS V14.01,2013-06-16 10:51:00,
2013-06-16 04:56:00,43.3,36.6,30.01,West,269,0.0,1.0,77,0.00,,,0.00,VWS V14.01,2013-06-16 10:56:00,
2013-06-16 05:01:00,42.9,36.5,30.02,West,269,0.0,2.0,78,0.00,,,0.00,VWS V14.01,2013-06-16 11:01:00,
2013-06-16 05:06:00,42.7,36.7,30.02,West,269,0.0,1.0,79,0.00,,,0.00,VWS V14.01,2013-06-16 11:06:00,
2013-06-16 05:11:00,42.4,36.4,30.02,West,269,0.0,1.0,79,0.00,,,0.00,VWS V14.01,2013-06-16 11:11:00,
2013-06-16 05:16:00,42.2,36.5,30.02,West,269,0.0,1.0,80,0.00,,,0.00,VWS V14.01,2013-06-16 11:16:00,
2013-06-16 05:21:00,42.0,36.6,30.02,West,269,0.0,1.0,81,0.00,,,0.00,VWS V14.01,2013-06-16 11:21:00,
2013-06-16 05:26:00,41.9,36.5,30.02,West,269,0.0,1.0,81,0.00,,,0.00,VWS V14.01,2013-06-16 11:26:00,
2013-06-16 05:31:00,42.0,36.6,30.03,West,269,0.0,1.0,81,0.00,,,0.00,VWS V14.01,2013-06-16 11:31:00,
2013-06-16 05:36:00,42.1,36.7,30.02,West,269,1.0,3.0,81,0.00,,,0.00,VWS V14.01,2013-06-16 11:36:00,
2013-06-16 05:41:00,42.7,37.0,30.02,West,269,0.0,4.0,80,0.00,,,0.00,VWS V14.01,2013-06-16 11:41:00,
2013-06-16 05:46:00,43.0,36.6,30.02,West,269,2.0,4.0,78,0.00,,,0.00,VWS V14.01,2013-06-16 11:46:00,
2013-06-16 05:51:00,43.0,36.6,30.02,West,269,0.0,4.0,78,0.00,,,0.00,VWS V14.01,2013-06-16 11:51:00,
2013-06-16 05:56:00,42.7,36.3,30.03,West,269,0.0,4.0,78,0.00,,,0.00,VWS V14.01,2013-06-16 11:56:00,
2013-06-16 06:01:00,42.6,36.5,30.03,West,269,0.0,4.0,79,0.00,,,0.00,VWS V14.01,2013-06-16 12:01:00,
2013-06-16 06:06:00,42.4,36.4,30.03,West,269,0.0,1.0,79,0.00,,,0.00,VWS V14.01,2013-06-16 12:06:00,
2013-06-16 06:11:00,41.9,36.2,30.03,West,269,0.0,1.0,80,0.00,,,0.00,VWS V14.01,2013-06-16 12:11:00,
2013-06-16 06:16:00,41.6,35.9,30.03,West,269,0.0,1.0,80,0.00,,,0.00,VWS V14.01,2013-06-16 12:16:00,
2013-06-16 06:21:00,41.5,36.1,30.03,West,269,0.0,1.0,81,0.00,,,0.00,VWS V14.01,2013-06-16 12:21:00,
2013-06-16 06:26:00,41.5,36.1,30.03,West,269,0.0,1.0,81,0.00,,,0.00,VWS V14.01,2013-06-16 12:26:00,
2013-06-16 06:31:00,41.5,36.4,30.03,West,269,0.0,1.0,82,0.00,,,0.00,VWS V14.01,2013-06-16 12:31:00,
2013-06-16 06:36:00,41.5,36.4,30.03,West,269,0.0,0.0,82,0.00,,,0.00,VWS V14.01,2013-06-16 12:36:00,
2013-06-16 06:41:00,41.3,36.2,30.04,West,269,0.0,0.0,82,0.00,,,0.00,VWS V14.01,2013-06-16 12:41:00,
2013-06-16 06:46:00,41.1,36.3,30.04,West,269,1.0,3.0,83,0.00,,,0.00,VWS V14.01,2013-06-16 12:46:00,
2013-06-16 06:51:00,41.1,36.6,30.04,West,269,0.0,3.0,84,0.00,,,0.00,VWS V14.01,2013-06-16 12:51:00,
2013-06-16 06:56:00,41.3,36.8,30.04,West,269,0.0,3.0,84,0.00,,,0.00,VWS V14.01,2013-06-16 12:56:00,
2013-06-16 07:01:00,41.8,37.3,30.04,West,269,0.0,3.0,84,0.00,,,0.00,VWS V14.01,2013-06-16 13:01:00,
2013-06-16 07:06:00,42.1,37.6,30.05,West,269,0.0,1.0,84,0.00,,,0.00,VWS V14.01,2013-06-16 13:06:00,
2013-06-16 07:11:00,42.7,37.9,30.05,West,269,0.0,1.0,83,0.00,,,0.00,VWS V14.01,2013-06-16 13:11:00,
2013-06-16 07:16:00,43.7,38.3,30.04,West,269,0.0,1.0,81,0.00,,,0.00,VWS V14.01,2013-06-16 13:16:00,
2013-06-16 07:21:00,44.3,38.8,30.05,West,269,0.0,1.0,81,0.00,,,0.00,VWS V14.01,2013-06-16 13:21:00,
2013-06-16 07:26:00,44.7,38.9,30.05,West,269,0.0,1.0,80,0.00,,,0.00,VWS V14.01,2013-06-16 13:26:00,
2013-06-16 07:31:00,45.2,39.1,30.05,West,269,0.0,1.0,79,0.00,,,0.00,VWS V14.01,2013-06-16 13:31:00,
2013-06-16 07:36:00,45.7,38.9,30.05,West,269,0.0,0.0,77,0.00,,,0.00,VWS V14.01,2013-06-16 13:36:00,
2013-06-16 07:41:00,46.4,39.6,30.05,West,269,0.0,0.0,77,0.00,,,0.00,VWS V14.01,2013-06-16 13:41:00,
2013-06-16 07:46:00,47.4,39.9,30.05,West,269,0.0,0.0,75,0.00,,,0.00,VWS V14.01,2013-06-16 13:46:00,
2013-06-16 07:51:00,48.1,40.6,30.05,West,269,0.0,0.0,75,0.00,,,0.00,VWS V14.01,2013-06-16 13:51:00,
2013-06-16 07:56:00,48.2,40.3,30.05,West,269,0.0,0.0,74,0.00,,,0.00,VWS V14.01,2013-06-16 13:56:00,
2013-06-16 08:01:00,48.4,40.5,30.05,West,269,0.0,0.0,74,0.00,,,0.00,VWS V14.01,2013-06-16 14:01:00,
2013-06-16 08:06:00,48.6,40.3,30.05,West,269,0.0,0.0,73,0.00,,,0.00,VWS V14.01,2013-06-16 14:06:00,
2013-06-16 08:11:00,49.0,41.4,30.05,West,269,0.0,0.0,75,0.00,,,0.00,VWS V14.01,2013-06-16 14:11:00,
2013-06-16 08:16:00,49.2,41.3,30.05,West,269,2.0,2.0,74,0.00,,,0.00,VWS V14.01,2013-06-16 14:16:00,
2013-06-16 08:21:00,49.4,40.4,30.05,West,269,0.0,3.0,71,0.00,,,0.00,VWS V14.01,2013-06-16 14:21:00,
2013-06-16 08:26:00,49.7,40.0,30.05,West,269,2.0,4.0,69,0.00,,,0.00,VWS V14.01,2013-06-16 14:26:00,
2013-06-16 08:31:00,50.3,40.9,30.05,West,269,0.0,4.0,70,0.00,,,0.00,VWS V14.01,2013-06-16 14:31:00,
2013-06-16 08:36:00,50.8,40.6,30.05,West,269,1.0,3.0,68,0.00,,,0.00,VWS V14.01,2013-06-16 14:36:00,
2013-06-16 08:41:00,51.5,41.3,30.05,West,269,0.0,3.0,68,0.00,,,0.00,VWS V14.01,2013-06-16 14:41:00,
2013-06-16 08:46:00,52.1,41.5,30.05,West,269,0.0,3.0,67,0.00,,,0.00,VWS V14.01,2013-06-16 14:46:00,
2013-06-16 08:51:00,52.9,41.9,30.05,West,269,0.0,3.0,66,0.00,,,0.00,VWS V14.01,2013-06-16 14:51:00,
2013-06-16 08:56:00,53.7,42.6,30.05,West,269,0.0,3.0,66,0.00,,,0.00,VWS V14.01,2013-06-16 14:56:00,
2013-06-16 09:01:00,54.6,42.7,30.05,West,269,0.0,3.0,64,0.00,,,0.00,VWS V14.01,2013-06-16 15:01:00,
2013-06-16 09:06:00,55.5,43.1,30.05,West,269,0.0,0.0,63,0.00,,,0.00,VWS V14.01,2013-06-16 15:06:00,
2013-06-16 09:11:00,56.5,42.8,30.05,West,269,0.0,1.0,60,0.00,,,0.00,VWS V14.01,2013-06-16 15:11:00,
2013-06-16 09:16:00,57.5,42.8,30.05,West,269,0.0,2.0,58,0.00,,,0.00,VWS V14.01,2013-06-16 15:16:00,
2013-06-16 09:21:00,58.7,43.1,30.04,West,272,0.0,3.0,56,0.00,,,0.00,VWS V14.01,2013-06-16 15:21:00,
2013-06-16 09:26:00,59.4,42.3,30.04,East,99,2.0,6.0,53,0.00,,,0.00,VWS V14.01,2013-06-16 15:26:00,
2013-06-16 09:31:00,60.3,42.6,30.04,East,99,0.0,6.0,52,0.00,,,0.00,VWS V14.01,2013-06-16 15:31:00,
2013-06-16 09:36:00,60.9,42.2,30.04,ESE,116,6.0,6.0,50,0.00,,,0.00,VWS V14.01,2013-06-16 15:36:00,
2013-06-16 09:41:00,61.4,41.6,30.04,ESE,108,4.0,9.0,48,0.00,,,0.00,VWS V14.01,2013-06-16 15:41:00,
2013-06-16 09:46:00,61.4,42.1,30.04,East,94,5.0,9.0,49,0.00,,,0.00,VWS V14.01,2013-06-16 15:46:00,
2013-06-16 09:51:00,61.6,42.8,30.04,ESE,112,5.0,9.0,50,0.00,,,0.00,VWS V14.01,2013-06-16 15:51:00,
2013-06-16 09:56:00,61.5,43.2,30.04,East,95,4.0,9.0,51,0.00,,,0.00,VWS V14.01,2013-06-16 15:56:00,
2013-06-16 10:01:00,61.7,42.9,30.04,East,97,6.0,9.0,50,0.00,,,0.00,VWS V14.01,2013-06-16 16:01:00,
2013-06-16 10:06:00,61.7,43.4,30.04,East,94,4.0,8.0,51,0.00,,,0.00,VWS V14.01,2013-06-16 16:06:00,
2013-06-16 10:11:00,62.0,43.7,30.04,East,85,2.0,9.0,51,0.00,,,0.00,VWS V14.01,2013-06-16 16:11:00,
2013-06-16 10:16:00,62.3,43.4,30.04,East,91,0.0,9.0,50,0.00,,,0.00,VWS V14.01,2013-06-16 16:16:00,
2013-06-16 10:21:00,62.5,43.6,30.04,ENE,60,6.0,9.0,50,0.00,,,0.00,VWS V14.01,2013-06-16 16:21:00,
2013-06-16 10:26:00,62.6,44.8,30.04,ESE,109,5.0,9.0,52,0.00,,,0.00,VWS V14.01,2013-06-16 16:26:00,
2013-06-16 10:31:00,63.1,45.2,30.04,East,94,2.0,9.0,52,0.00,,,0.00,VWS V14.01,2013-06-16 16:31:00,
2013-06-16 10:36:00,63.3,43.3,30.04,ESE,103,5.0,8.0,48,0.00,,,0.00,VWS V14.01,2013-06-16 16:36:00,
2013-06-16 10:41:00,63.3,43.8,30.04,ESE,113,6.0,10.0,49,0.00,,,0.00,VWS V14.01,2013-06-16 16:41:00,
2013-06-16 10:46:00,63.5,44.0,30.03,ESE,107,2.0,13.0,49,0.00,,,0.00,VWS V14.01,2013-06-16 16:46:00,
2013-06-16 10:51:00,63.9,44.9,30.03,ENE,78,1.0,13.0,50,0.00,,,0.00,VWS V14.01,2013-06-16 16:51:00,
2013-06-16 10:56:00,64.1,45.6,30.03,SE,130,6.0,13.0,51,0.00,,,0.00,VWS V14.01,2013-06-16 16:56:00,
2013-06-16 11:01:00,64.2,44.1,30.03,ESE,111,7.0,13.0,48,0.00,,,0.00,VWS V14.01,2013-06-16 17:01:00,
2013-06-16 11:06:00,64.2,44.6,30.03,East,92,8.0,9.0,49,0.00,,,0.00,VPLive 1.2.5.27,2013-06-16 17:06:00,
2013-06-16 11:11:00,64.5,44.9,30.03,ESE,115,2.0,11.0,49,0.00,,,0.00,VWS V14.01,2013-06-16 17:11:00,
2013-06-16 11:16:00,65.0,44.3,30.03,East,83,4.0,11.0,47,0.00,,,0.00,VWS V14.01,2013-06-16 17:16:00,
2013-06-16 11:21:00,65.4,44.7,30.03,East,95,4.0,11.0,47,0.00,,,0.00,VWS V14.01,2013-06-16 17:21:00,
2013-06-16 11:26:00,65.6,45.4,30.03,East,97,5.0,11.0,48,0.00,,,0.00,VWS V14.01,2013-06-16 17:26:00,
2013-06-16 11:31:00,65.7,44.4,30.03,East,96,2.0,11.0,46,0.00,,,0.00,VWS V14.01,2013-06-16 17:31:00,
2013-06-16 11:36:00,66.3,44.9,30.03,ENE,66,5.0,7.0,46,0.00,,,0.00,VWS V14.01,2013-06-16 17:36:00,
2013-06-16 11:41:00,66.6,44.6,30.03,East,86,4.0,7.0,45,0.00,,,0.00,VWS V14.01,2013-06-16 17:41:00,
2013-06-16 11:46:00,67.2,46.3,30.02,ENE,70,3.0,7.0,47,0.00,,,0.00,VWS V14.01,2013-06-16 17:46:00,
2013-06-16 11:51:00,67.3,47.5,30.02,East,85,5.0,8.0,49,0.00,,,0.00,VWS V14.01,2013-06-16 17:51:00,
2013-06-16 11:56:00,67.4,44.2,30.02,ENE,68,2.0,10.0,43,0.00,,,0.00,VWS V14.01,2013-06-16 17:56:00,
2013-06-16 12:01:00,67.6,46.1,30.02,ENE,59,3.0,10.0,46,0.00,,,0.00,VWS V14.01,2013-06-16 18:01:00,
2013-06-16 12:06:00,67.7,45.6,30.02,East,87,0.0,7.0,45,0.00,,,0.00,VWS V14.01,2013-06-16 18:06:00,
2013-06-16 12:11:00,68.5,46.9,30.02,ENE,76,5.0,8.0,46,0.00,,,0.00,VWS V14.01,2013-06-16 18:11:00,
2013-06-16 12:16:00,68.7,45.9,30.02,East,79,1.0,8.0,44,0.00,,,0.00,VWS V14.01,2013-06-16 18:16:00,
2013-06-16 12:21:00,68.8,45.4,30.02,ENE,61,3.0,8.0,43,0.00,,,0.00,VWS V14.01,2013-06-16 18:21:00,
2013-06-16 12:26:00,68.9,46.1,30.02,East,86,4.0,8.0,44,0.00,,,0.00,VWS V14.01,2013-06-16 18:26:00,
2013-06-16 12:31:00,69.4,46.0,30.02,East,79,2.0,8.0,43,0.00,,,0.00,VWS V14.01,2013-06-16 18:31:00,
2013-06-16 12:35:00,69.9,44.5,30.01,ENE,78,0.0,4.0,40,0.00,,,0.00,VWS V14.01,2013-06-16 18:35:00,
2013-06-16 12:40:00,69.8,46.3,30.01,ENE,75,0.0,5.0,43,0.00,,,0.00,VWS V14.01,2013-06-16 18:40:00,
2013-06-16 12:45:00,70.2,45.4,30.01,ENE,63,3.0,5.0,41,0.00,,,0.00,VWS V14.01,2013-06-16 18:45:00,
2013-06-16 12:50:00,70.6,45.1,30.01,ENE,63,2.0,5.0,40,0.00,,,0.00,VWS V14.01,2013-06-16 18:50:00,
2013-06-16 12:55:00,71.1,42.1,30.01,ENE,62,0.0,5.0,35,0.00,,,0.00,VWS V14.01,2013-06-16 18:55:00,
2013-06-16 13:00:00,72.1,44.4,30.01,West,278,4.0,6.0,37,0.00,,,0.00,VWS V14.01,2013-06-16 19:00:00,
2013-06-16 13:05:00,72.2,42.3,30.01,West,278,1.0,2.0,34,0.00,,,0.00,VWS V14.01,2013-06-16 19:05:00,
2013-06-16 13:10:00,72.3,43.9,30.00,NE,45,2.0,6.0,36,0.00,,,0.00,VWS V14.01,2013-06-16 19:10:00,
2013-06-16 13:15:00,72.3,42.4,30.00,ENE,69,2.0,7.0,34,0.00,,,0.00,VWS V14.01,2013-06-16 19:15:00,
2013-06-16 13:20:00,72.5,44.1,30.00,NW,312,4.0,8.0,36,0.00,,,0.00,VWS V14.01,2013-06-16 19:20:00,
2013-06-16 13:25:00,72.7,44.2,30.00,NW,311,2.0,8.0,36,0.00,,,0.00,VWS V14.01,2013-06-16 19:25:00,
2013-06-16 13:30:00,73.0,42.2,30.00,NW,311,0.0,8.0,33,0.00,,,0.00,VWS V14.01,2013-06-16 19:30:00,
2013-06-16 13:35:00,73.5,44.2,30.00,West,275,8.0,8.0,35,0.00,,,0.00,VWS V14.01,2013-06-16 19:35:00,
2013-06-16 13:40:00,73.5,41.0,30.00,West,279,0.0,8.0,31,0.00,,,0.00,VWS V14.01,2013-06-16 19:40:00,
2013-06-16 13:45:00,73.0,41.4,30.00,NNE,21,0.0,8.0,32,0.00,,,0.00,VWS V14.01,2013-06-16 19:45:00,
2013-06-16 13:50:00,72.9,41.3,30.00,NNE,21,1.0,8.0,32,0.00,,,0.00,VWS V14.01,2013-06-16 19:50:00,
2013-06-16 13:55:00,72.9,41.3,29.99,NE,38,5.0,8.0,32,0.00,,,0.00,VWS V14.01,2013-06-16 19:55:00,
2013-06-16 14:00:00,73.1,41.5,29.99,NE,41,3.0,8.0,32,0.00,,,0.00,VWS V14.01,2013-06-16 20:00:00,
2013-06-16 14:05:00,73.7,41.2,29.99,NE,42,0.0,4.0,31,0.00,,,0.00,VWS V14.01,2013-06-16 20:05:00,
2013-06-16 14:10:00,74.3,46.4,29.99,East,94,5.0,7.0,37,0.00,,,0.00,VWS V14.01,2013-06-16 20:10:00,
2013-06-16 14:15:00,74.5,47.9,29.99,East,99,1.0,8.0,39,0.00,,,0.00,VWS V14.01,2013-06-16 20:15:00,
2013-06-16 14:20:00,74.7,47.4,29.99,East,88,1.0,8.0,38,0.00,,,0.00,VWS V14.01,2013-06-16 20:20:00,
2013-06-16 14:25:00,74.7,47.4,29.98,ENE,74,8.0,9.0,38,0.00,,,0.00,VWS V14.01,2013-06-16 20:25:00,
2013-06-16 14:30:00,74.3,47.8,29.98,East,98,11.0,14.0,39,0.00,,,0.00,VWS V14.01,2013-06-16 20:30:00,
2013-06-16 14:35:00,74.7,47.4,29.98,East,101,7.0,12.0,38,0.00,,,0.00,VWS V14.01,2013-06-16 20:35:00,
2013-06-16 14:40:00,74.6,48.7,29.98,SSE,159,6.0,12.0,40,0.00,,,0.00,VWS V14.01,2013-06-16 20:40:00,
2013-06-16 14:45:00,74.9,47.6,29.98,ESE,107,7.0,13.0,38,0.00,,,0.00,VWS V14.01,2013-06-16 20:45:00,
2013-06-16 14:50:00,74.7,45.3,29.98,South,180,0.0,13.0,35,0.00,,,0.00,VWS V14.01,2013-06-16 20:50:00,
2013-06-16 14:55:00,75.5,48.1,29.97,East,86,7.0,13.0,38,0.00,,,0.00,VWS V14.01,2013-06-16 20:55:00,
2013-06-16 15:00:00,75.2,47.2,29.97,ESE,116,8.0,14.0,37,0.00,,,0.00,VWS V14.01,2013-06-16 21:00:00,
2013-06-16 15:05:00,75.1,47.8,29.98,SE,126,5.0,12.0,38,0.00,,,0.00,VWS V14.01,2013-06-16 21:05:00,
2013-06-16 15:10:00,74.7,44.5,29.98,East,89,6.0,12.0,34,0.00,,,0.00,VWS V14.01,2013-06-16 21:10:00,
2013-06-16 15:15:00,74.8,47.5,29.97,SE,144,0.0,12.0,38,0.00,,,0.00,VWS V14.01,2013-06-16 21:15:00,
2013-06-16 15:20:00,75.3,45.8,29.97,ENE,78,2.0,12.0,35,0.00,,,0.00,VWS V14.01,2013-06-16 21:20:00,
2013-06-16 15:25:00,76.0,47.2,29.97,SSE,165,8.0,13.0,36,0.00,,,0.00,VWS V14.01,2013-06-16 21:25:00,
2013-06-16 15:30:00,76.0,46.4,29.97,ESE,106,7.0,13.0,35,0.00,,,0.00,VPLive 1.2.5.27,2013-06-16 21:30:00,
2013-06-16 15:35:00,75.8,46.2,29.97,SSE,154,6.0,13.0,35,0.00,,,0.00,VWS V14.01,2013-06-16 21:35:00,
2013-06-16 15:40:00,76.2,47.3,29.97,South,171,7.0,15.0,36,0.00,,,0.00,VWS V14.01,2013-06-16 21:40:00,
2013-06-16 15:45:00,75.7,47.6,29.97,SE,145,2.0,15.0,37,0.00,,,0.00,VWS V14.01,2013-06-16 21:45:00,
2013-06-16 15:50:00,76.4,46.8,29.97,SE,133,11.0,15.0,35,0.00,,,0.00,VWS V14.01,2013-06-16 21:50:00,
2013-06-16 15:55:00,76.8,47.1,29.96,SE,124,8.0,15.0,35,0.00,,,0.00,VWS V14.01,2013-06-16 21:55:00,
2013-06-16 16:00:00,76.1,44.9,29.97,ESE,105,6.0,15.0,33,0.00,,,0.00,VWS V14.01,2013-06-16 22:00:00,
2013-06-16 16:05:00,76.1,46.5,29.96,ENE,57,8.0,11.0,35,0.00,,,0.00,VWS V14.01,2013-06-16 22:05:00,
2013-06-16 16:10:00,76.2,47.3,29.96,East,87,6.0,13.0,36,0.00,,,0.00,VWS V14.01,2013-06-16 22:10:00,
2013-06-16 16:15:00,76.4,47.5,29.96,East,91,8.0,13.0,36,0.00,,,0.00,VWS V14.01,2013-06-16 22:15:00,
2013-06-16 16:20:00,76.2,46.6,29.96,East,92,7.0,13.0,35,0.00,,,0.00,VWS V14.01,2013-06-16 22:20:00,
2013-06-16 16:25:00,76.0,45.6,29.96,East,86,5.0,15.0,34,0.00,,,0.00,VWS V14.01,2013-06-16 22:25:00,
2013-06-16 16:30:00,75.8,45.5,29.96,SE,129,5.0,18.0,34,0.00,,,0.00,VWS V14.01,2013-06-16 22:30:00,
2013-06-16 16:35:00,75.8,46.2,29.96,SE,130,4.0,13.0,35,0.00,,,0.00,VWS V14.01,2013-06-16 22:35:00,
2013-06-16 16:40:00,76.1,46.5,29.96,East,82,7.0,14.0,35,0.00,,,0.00,VWS V14.01,2013-06-16 22:40:00,
2013-06-16 16:45:00,76.3,45.9,29.96,ENE,61,6.0,14.0,34,0.00,,,0.00,VWS V14.01,2013-06-16 22:45:00,
2013-06-16 16:50:00,76.4,48.2,29.95,ESE,117,6.0,12.0,37,0.00,,,0.00,VPLive 1.2.5.27,2013-06-16 22:50:00,
2013-06-16 16:55:00,76.5,45.2,29.96,East,86,4.0,12.0,33,0.00,,,0.00,VPLive 1.2.5.27,2013-06-16 22:55:00,
2013-06-16 17:00:00,76.4,48.9,29.96,ESE,119,4.0,14.0,38,0.00,,,0.00,VWS V14.01,2013-06-16 23:00:00,
2013-06-16 17:05:00,76.6,46.9,29.95,East,79,5.0,13.0,35,0.00,,,0.00,VWS V14.01,2013-06-16 23:05:00,
2013-06-16 17:10:00,76.7,46.2,29.95,ESE,118,7.0,13.0,34,0.00,,,0.00,VWS V14.01,2013-06-16 23:10:00,
2013-06-16 17:15:00,76.9,46.4,29.95,SSE,153,1.0,13.0,34,0.00,,,0.00,VWS V14.01,2013-06-16 23:15:00,
2013-06-16 17:20:00,77.2,48.9,29.95,ENE,78,3.0,13.0,37,0.00,,,0.00,VWS V14.01,2013-06-16 23:20:00,
2013-06-16 17:25:00,77.3,46.8,29.95,ESE,106,4.0,13.0,34,0.00,,,0.00,VWS V14.01,2013-06-16 23:25:00,
2013-06-16 17:30:00,77.0,47.3,29.95,SE,142,2.0,13.0,35,0.00,,,0.00,VWS V14.01,2013-06-16 23:30:00,
2013-06-16 17:35:00,77.0,46.5,29.95,ESE,119,2.0,11.0,34,0.00,,,0.00,VWS V14.01,2013-06-16 23:35:00,
2013-06-16 17:41:00,76.9,48.7,29.95,SE,128,4.0,11.0,37,0.00,,,0.00,VWS V14.01,2013-06-16 23:41:00,
2013-06-16 17:48:00,76.5,47.6,29.95,SE,146,5.0,11.0,36,0.00,,,0.00,VWS V14.01,2013-06-16 23:48:00,
2013-06-16 18:02:00,75.5,47.4,29.94,SSE,160,9.0,9.0,37,0.00,,,0.00,VWS V14.01,2013-06-17 00:02:00,
2013-06-16 18:07:00,75.5,46.7,29.94,ESE,121,5.0,13.0,36,0.00,,,0.00,VWS V14.01,2013-06-17 00:07:00,
2013-06-16 18:12:00,75.9,47.0,29.94,SE,143,4.0,7.0,36,0.00,,,0.00,VPLive 1.2.5.27,2013-06-17 00:12:00,
2013-06-16 18:17:00,76.3,45.1,29.94,SE,135,0.0,13.0,33,0.00,,,0.00,VWS V14.01,2013-06-17 00:17:00,
2013-06-16 18:22:00,76.3,46.7,29.94,SE,127,0.0,13.0,35,0.00,,,0.00,VWS V14.01,2013-06-17 00:22:00,
2013-06-16 18:27:00,75.7,45.4,29.94,SSE,168,7.0,13.0,34,0.00,,,0.00,VWS V14.01,2013-06-17 00:27:00,
2013-06-16 18:32:00,74.6,45.9,29.94,SSE,161,7.0,8.0,36,0.00,,,0.00,VWS V14.01,2013-06-17 00:32:00,
2013-06-16 18:37:00,74.6,45.9,29.94,SE,127,1.0,10.0,36,0.00,,,0.00,VWS V14.01,2013-06-17 00:37:00,
2013-06-16 18:42:00,75.3,48.0,29.94,SSE,153,1.0,10.0,38,0.00,,,0.00,VWS V14.01,2013-06-17 00:42:00,
2013-06-16 18:47:00,75.8,47.0,29.94,SSE,148,1.0,10.0,36,0.00,,,0.00,VWS V14.01,2013-06-17 00:47:00,
2013-06-16 18:52:00,76.0,46.4,29.93,SSE,158,1.0,10.0,35,0.00,,,0.00,VWS V14.01,2013-06-17 00:52:00,
2013-06-16 18:57:00,76.1,48.0,29.93,SSE,159,5.0,10.0,37,0.00,,,0.00,VWS V14.01,2013-06-17 00:57:00,
2013-06-16 19:02:00,76.0,47.2,29.93,SE,144,4.0,4.0,36,0.00,,,0.00,VWS V14.01,2013-06-17 01:02:00,
2013-06-16 19:07:00,76.1,46.5,29.93,East,96,5.0,8.0,35,0.00,,,0.00,VWS V14.01,2013-06-17 01:07:00,
2013-06-16 19:12:00,76.1,46.5,29.93,ESE,111,0.0,11.0,35,0.00,,,0.00,VWS V14.01,2013-06-17 01:12:00,
2013-06-16 19:17:00,76.2,45.0,29.93,ESE,123,0.0,11.0,33,0.00,,,0.00,VWS V14.01,2013-06-17 01:17:00,
2013-06-16 19:22:00,76.4,46.8,29.93,East,92,1.0,11.0,35,0.00,,,0.00,VWS V14.01,2013-06-17 01:22:00,
2013-06-16 19:27:00,76.2,44.2,29.93,ESE,113,4.0,11.0,32,0.00,,,0.00,VWS V14.01,2013-06-17 01:27:00,
2013-06-16 19:32:00,76.1,45.7,29.93,SSE,164,7.0,7.0,34,0.00,,,0.00,VWS V14.01,2013-06-17 01:32:00,
2013-06-16 19:37:00,75.7,45.4,29.93,ESE,109,5.0,11.0,34,0.00,,,0.00,VWS V14.01,2013-06-17 01:37:00,
2013-06-16 19:42:00,75.7,44.6,29.93,SE,140,5.0,11.0,33,0.00,,,0.00,VWS V14.01,2013-06-17 01:42:00,
2013-06-16 19:47:00,75.7,46.1,29.93,SSE,165,1.0,11.0,35,0.00,,,0.00,VWS V14.01,2013-06-17 01:47:00,
2013-06-16 19:52:00,75.7,46.9,29.93,East,84,0.0,11.0,36,0.00,,,0.00,VWS V14.01,2013-06-17 01:52:00,
2013-06-16 19:57:00,75.8,44.7,29.93,ESE,115,0.0,11.0,33,0.00,,,0.00,VWS V14.01,2013-06-17 01:57:00,
2013-06-16 20:02:00,76.0,46.4,29.93,ESE,104,1.0,5.0,35,0.00,,,0.00,VWS V14.01,2013-06-17 02:02:00,
2013-06-16 20:07:00,75.5,45.2,29.93,ESE,121,0.0,7.0,34,0.00,,,0.00,VWS V14.01,2013-06-17 02:07:00,
2013-06-16 20:12:00,75.5,44.4,29.93,ESE,121,0.0,7.0,33,0.00,,,0.00,VWS V14.01,2013-06-17 02:12:00,
2013-06-16 20:17:00,75.5,46.0,29.93,SE,134,1.0,7.0,35,0.00,,,0.00,VWS V14.01,2013-06-17 02:17:00,
2013-06-16 20:22:00,74.8,45.3,29.93,SE,138,5.0,7.0,35,0.00,,,0.00,VWS V14.01,2013-06-17 02:22:00,
2013-06-16 20:27:00,74.2,45.6,29.93,SE,138,2.0,7.0,36,0.00,,,0.00,VWS V14.01,2013-06-17 02:27:00,
2013-06-16 20:32:00,74.2,44.8,29.93,SE,138,0.0,2.0,35,0.00,,,0.00,VWS V14.01,2013-06-17 02:32:00,
2013-06-16 20:37:00,74.1,44.7,29.93,South,179,6.0,7.0,35,0.00,,,0.00,VWS V14.01,2013-06-17 02:37:00,
2013-06-16 20:42:00,73.5,44.2,29.93,SSW,192,0.0,7.0,35,0.00,,,0.00,VWS V14.01,2013-06-17 02:42:00,
2013-06-16 20:47:00,72.8,45.0,29.93,South,190,2.0,7.0,37,0.00,,,0.00,VWS V14.01,2013-06-17 02:47:00,
2013-06-16 20:52:00,72.0,44.3,29.93,South,181,1.0,7.0,37,0.00,,,0.00,VWS V14.01,2013-06-17 02:52:00,
2013-06-16 20:57:00,71.3,43.7,29.93,South,181,0.0,7.0,37,0.00,,,0.00,VWS V14.01,2013-06-17 02:57:00,
2013-06-16 21:02:00,70.7,44.5,29.93,SSW,195,0.0,3.0,39,0.00,,,0.00,VWS V14.01,2013-06-17 03:02:00,
2013-06-16 21:07:00,70.2,44.8,29.93,SSW,195,0.0,3.0,40,0.00,,,0.00,VWS V14.01,2013-06-17 03:07:00,
2013-06-16 21:12:00,69.3,46.5,29.93,SSW,195,0.0,3.0,44,0.00,,,0.00,VWS V14.01,2013-06-17 03:12:00,
2013-06-16 21:17:00,68.7,45.9,29.93,SSW,195,0.0,3.0,44,0.00,,,0.00,VWS V14.01,2013-06-17 03:17:00,
2013-06-16 21:22:00,68.2,45.5,29.93,SSW,195,0.0,3.0,44,0.00,,,0.00,VWS V14.01,2013-06-17 03:22:00,
2013-06-16 21:27:00,67.8,46.3,29.93,SSW,195,0.0,3.0,46,0.00,,,0.00,VWS V14.01,2013-06-17 03:27:00,
2013-06-16 21:32:00,66.8,45.4,29.93,SSW,195,0.0,0.0,46,0.00,,,0.00,VWS V14.01,2013-06-17 03:32:00,
2013-06-16 21:37:00,65.9,44.6,29.93,SSW,195,0.0,4.0,46,0.00,,,0.00,VWS V14.01,2013-06-17 03:37:00,
2013-06-16 21:42:00,65.2,44.5,29.93,SSW,195,0.0,3.0,47,0.00,,,0.00,VPLive 1.2.5.27,2013-06-17 03:42:00,
2013-06-16 21:47:00,65.2,43.9,29.93,SSW,195,0.0,4.0,46,0.00,,,0.00,VWS V14.01,2013-06-17 03:47:00,
2013-06-16 21:52:00,65.2,43.9,29.93,SSW,195,0.0,4.0,46,0.00,,,0.00,VWS V14.01,2013-06-17 03:52:00,
2013-06-16 21:57:00,64.8,45.2,29.94,SSW,195,0.0,4.0,49,0.00,,,0.00,VWS V14.01,2013-06-17 03:57:00,
2013-06-16 22:01:00,64.1,44.0,29.94,SSW,195,0.0,0.0,48,0.00,,,0.00,VPLive 1.2.5.27,2013-06-17 04:01:00,
2013-06-16 22:06:00,63.4,43.4,29.94,SSW,195,0.0,1.0,48,0.00,,,0.00,VWS V14.01,2013-06-17 04:06:00,
2013-06-16 22:11:00,63.1,43.7,29.93,SSW,195,0.0,1.0,49,0.00,,,0.00,VWS V14.01,2013-06-17 04:11:00,
2013-06-16 22:16:00,62.7,44.8,29.94,SSW,195,0.0,3.0,52,0.00,,,0.00,VWS V14.01,2013-06-17 04:16:00,
2013-06-16 22:21:00,61.9,44.1,29.94,SW,218,4.0,4.0,52,0.00,,,0.00,VWS V14.01,2013-06-17 04:21:00,
2013-06-16 22:26:00,61.8,45.0,29.94,WSW,247,0.0,5.0,54,0.00,,,0.00,VWS V14.01,2013-06-17 04:26:00,
2013-06-16 22:31:00,61.7,43.9,29.94,WSW,247,0.0,5.0,52,0.00,,,0.00,VWS V14.01,2013-06-17 04:31:00,
2013-06-16 22:36:00,61.9,44.1,29.94,WSW,247,0.0,1.0,52,0.00,,,0.00,VWS V14.01,2013-06-17 04:36:00,
2013-06-16 22:41:00,61.5,43.2,29.94,WSW,247,0.0,1.0,51,0.00,,,0.00,VWS V14.01,2013-06-17 04:41:00,
2013-06-16 22:46:00,61.1,43.4,29.94,WSW,247,0.0,1.0,52,0.00,,,0.00,VWS V14.01,2013-06-17 04:46:00,
2013-06-16 22:51:00,60.5,44.3,29.95,West,270,3.0,7.0,55,0.00,,,0.00,VWS V14.01,2013-06-17 04:51:00,
2013-06-16 22:56:00,60.6,44.4,29.94,West,270,0.0,7.0,55,0.00,,,0.00,VWS V14.01,2013-06-17 04:56:00,
2013-06-16 23:01:00,60.4,44.2,29.94,West,270,0.0,7.0,55,0.00,,,0.00,VWS V14.01,2013-06-17 05:01:00,
2013-06-16 23:06:00,59.8,44.1,29.95,West,270,0.0,0.0,56,0.00,,,0.00,VWS V14.01,2013-06-17 05:06:00,
2013-06-16 23:11:00,59.0,43.8,29.95,West,270,0.0,0.0,57,0.00,,,0.00,VWS V14.01,2013-06-17 05:11:00,
2013-06-16 23:16:00,58.9,43.2,29.95,West,270,0.0,1.0,56,0.00,,,0.00,VWS V14.01,2013-06-17 05:16:00,
2013-06-16 23:21:00,59.0,42.9,29.95,West,270,0.0,1.0,55,0.00,,,0.00,VWS V14.01,2013-06-17 05:21:00,
2013-06-16 23:26:00,59.0,43.3,29.95,West,270,0.0,2.0,56,0.00,,,0.00,VWS V14.01,2013-06-17 05:26:00,
2013-06-16 23:31:00,58.4,43.7,29.95,West,270,1.0,2.0,58,0.00,,,0.00,VWS V14.01,2013-06-17 05:31:00,
2013-06-16 23:36:00,56.1,44.5,29.95,East,89,4.0,6.0,65,0.00,,,0.00,VWS V14.01,2013-06-17 05:36:00,
2013-06-16 23:41:00,54.6,44.7,29.95,East,94,5.0,6.0,69,0.00,,,0.00,VWS V14.01,2013-06-17 05:41:00,
2013-06-16 23:46:00,54.2,45.0,29.95,East,98,0.0,6.0,71,0.00,,,0.00,VWS V14.01,2013-06-17 05:46:00,
2013-06-16 23:51:00,54.2,44.6,29.95,East,98,0.0,6.0,70,0.00,,,0.00,VWS V14.01,2013-06-17 05:51:00,
2013-06-16 23:56:00,54.3,44.7,29.95,East,98,4.0,6.0,70,0.00,,,0.00,VWS V14.01,2013-06-17 05:56:00,